This is the latest recevied weather packets stored in our database for station/object KE8DDT-7. If no packets are shown the sender has not sent any weather packets the latest 1 day(s).
| Time | Temp. | Humidity | Pressure | Rain* | Wind** | Luminosity | Snow |
|---|---|---|---|---|---|---|---|
| 1778022825 | 11.11° C | 49% | 999.6 hPa | 0 mm | 0 m/s | 39 W/m² | - |
| 1778022521 | 11.11° C | 53% | 999.5 hPa | 0 mm | 0 m/s | 40 W/m² | - |
| 1778022221 | 11.11° C | 55% | 999.5 hPa | 0 mm | 0 m/s | 51 W/m² | - |
| 1778021921 | 11.11° C | 53% | 999.4 hPa | 0 mm | 0 m/s | 46 W/m² | - |
| 1778021620 | 11.11° C | 54% | 999.5 hPa | 0 mm | 0 m/s | 54 W/m² | - |
| 1778021323 | 11.11° C | 55% | 999.5 hPa | 0 mm | 0 m/s | 70 W/m² | - |
| 1778021020 | 11.11° C | 54% | 999.6 hPa | 0 mm | 0 m/s | 77 W/m² | - |
| 1778020721 | 11.11° C | 54% | 999.7 hPa | 0 mm | 0 m/s | 79 W/m² | - |
| 1778020121 | 11.67° C | 52% | 999.6 hPa | 0 mm | 0 m/s | 102 W/m² | - |
| 1778019820 | 11.67° C | 52% | 999.7 hPa | 0 mm | 0 m/s | 102 W/m² | - |
| 1778019521 | 11.67° C | 54% | 999.7 hPa | 0 mm | 0 m/s | 107 W/m² | - |
| 1778019166 | 11.67° C | 53% | 999.7 hPa | 0 mm | 0 m/s | 114 W/m² | - |
| 1778018866 | 11.67° C | 52% | 999.6 hPa | 0 mm | 0 m/s | 118 W/m² | - |
| 1778018566 | 11.67° C | 52% | 999.7 hPa | 0 mm | 0 m/s | 113 W/m² | - |
| 1778018266 | 11.67° C | 52% | 999.6 hPa | 0 mm | 0 m/s | 121 W/m² | - |
| 1778017966 | 11.67° C | 52% | 999.6 hPa | 0 mm | 0 m/s | 135 W/m² | - |
| 1778017668 | 11.67° C | 53% | 999.6 hPa | 0 mm | 0 m/s | 113 W/m² | - |
| 1778017366 | 11.67° C | 52% | 999.6 hPa | 0 mm | 0 m/s | 107 W/m² | - |
| 1778017066 | 11.67° C | 52% | 999.7 hPa | 0 mm | 0 m/s | 105 W/m² | - |
| 1778016766 | 11.67° C | 53% | 999.6 hPa | 0 mm | 0 m/s | 148 W/m² | - |
| 1778016466 | 11.67° C | 54% | 999.7 hPa | 0 mm | 0 m/s | 120 W/m² | - |
| 1778016166 | 11.67° C | 54% | 999.6 hPa | 0 mm | 0 m/s | 104 W/m² | - |
| 1778015619 | 11.67° C | 56% | 999.6 hPa | 0 mm | 0 m/s | 130 W/m² | - |
| 1778015319 | 11.67° C | 56% | 999.6 hPa | 0 mm | 0 m/s | 125 W/m² | - |
| 1778015019 | 11.67° C | 56% | 999.6 hPa | 0 mm | 0 m/s | 137 W/m² | - |
* Rain latest hour (hover to see other rain measurements)
** Current wind speed in m/s (hover to see current wind gust speed)